Hourly Weather Lugovoy

Today, 6 May, Thursday

Time Temperature Precipitation Wind Pressure Humidity
00:00 +13°C° 0.1 mm 6 mps 739 mmHg 70%
01:00 +13°C° 0.1 mm 6 mps 739 mmHg 75%
02:00 +11°C° 0.1 mm 6 mps 738 mmHg 79%
03:00 +10°C° 1.2 mm 6 mps 739 mmHg 83%
04:00 +9°C° 1.2 mm 5 mps 739 mmHg 87%
05:00 +8°C° 1.2 mm 5 mps 739 mmHg 91%
06:00 +7°C° 0.3 mm 6 mps 740 mmHg 89%
07:00 +7°C° 0.3 mm 6 mps 741 mmHg 88%
08:00 +7°C° 0.3 mm 6 mps 742 mmHg 86%
09:00 +8°C° 0.2 mm 6 mps 743 mmHg 77%
10:00 +9°C° 0.2 mm 7 mps 744 mmHg 69%
11:00 +10°C° 0.2 mm 7 mps 744 mmHg 60%
12:00 +10°C° 0 mm 7 mps 745 mmHg 52%
13:00 +11°C° 0 mm 7 mps 745 mmHg 44%
14:00 +12°C° 0 mm 7 mps 746 mmHg 37%
15:00 +13°C° 0 mm 6 mps 746 mmHg 40%
16:00 +11°C° 0 mm 6 mps 746 mmHg 43%
17:00 +12°C° 0 mm 5 mps 747 mmHg 47%
18:00 +11°C° 0 mm 4 mps 747 mmHg 53%
19:00 +9°C° 0 mm 3 mps 747 mmHg 59%
20:00 +7°C° 0 mm 3 mps 748 mmHg 65%
21:00 +7°C° 0 mm 2 mps 748 mmHg 69%
22:00 +6°C° 0 mm 2 mps 748 mmHg 73%
23:00 +5°C° 0 mm 2 mps 748 mmHg 76%

Tomorrow, 7 May, Friday

Time Temperature Precipitation Wind Pressure Humidity
00:00 +6°C° 0 mm 2 mps 748 mmHg 77%
01:00 +5°C° 0 mm 3 mps 748 mmHg 78%
02:00 +5°C° 0 mm 3 mps 747 mmHg 78%
03:00 +5°C° 0.5 mm 3 mps 747 mmHg 83%
04:00 +5°C° 0.5 mm 3 mps 746 mmHg 87%
05:00 +7°C° 0.5 mm 3 mps 746 mmHg 92%
06:00 +7°C° 0.2 mm 4 mps 745 mmHg 89%
07:00 +8°C° 0.2 mm 4 mps 745 mmHg 86%
08:00 +9°C° 0.2 mm 5 mps 744 mmHg 84%
09:00 +9°C° 1.2 mm 5 mps 744 mmHg 86%
10:00 +8°C° 1.2 mm 5 mps 744 mmHg 89%
11:00 +8°C° 1.2 mm 5 mps 743 mmHg 91%
12:00 +9°C° 0.2 mm 6 mps 743 mmHg 88%
13:00 +10°C° 0.2 mm 6 mps 743 mmHg 85%
14:00 +11°C° 0.2 mm 6 mps 743 mmHg 81%
15:00 +13°C° 0.4 mm 6 mps 743 mmHg 80%
16:00 +13°C° 0.4 mm 6 mps 743 mmHg 78%
17:00 +13°C° 0.4 mm 6 mps 743 mmHg 76%
18:00 +11°C° 0.1 mm 6 mps 744 mmHg 79%
19:00 +10°C° 0.1 mm 7 mps 744 mmHg 81%
20:00 +9°C° 0.1 mm 7 mps 745 mmHg 84%
21:00 +8°C° 0 mm 6 mps 745 mmHg 84%
22:00 +7°C° 0 mm 6 mps 746 mmHg 84%
23:00 +7°C° 0 mm 6 mps 747 mmHg 85%

Day after tomorrow, 8 May, Saturday

Time Temperature Precipitation Wind Pressure Humidity
00:00 +6°C° 0 mm 5 mps 747 mmHg 87%
01:00 +6°C° 0 mm 4 mps 748 mmHg 90%
02:00 +5°C° 0 mm 4 mps 748 mmHg 92%
03:00 +5°C° 0 mm 3 mps 749 mmHg 91%
04:00 +5°C° 0 mm 3 mps 749 mmHg 90%
05:00 +5°C° 0 mm 2 mps 750 mmHg 88%
06:00 +6°C° 0 mm 2 mps 750 mmHg 83%
07:00 +7°C° 0 mm 2 mps 750 mmHg 78%
08:00 +8°C° 0 mm 1 mps 751 mmHg 73%
09:00 +8°C° 0 mm 2 mps 751 mmHg 71%
10:00 +9°C° 0 mm 2 mps 750 mmHg 70%
11:00 +9°C° 0 mm 2 mps 750 mmHg 68%
12:00 +8°C° 0.3 mm 2 mps 750 mmHg 75%
13:00 +8°C° 0.3 mm 3 mps 750 mmHg 83%
14:00 +7°C° 0.3 mm 3 mps 749 mmHg 90%
15:00 +8°C° 0.1 mm 3 mps 749 mmHg 91%
16:00 +8°C° 0.1 mm 2 mps 749 mmHg 92%
17:00 +8°C° 0.1 mm 2 mps 748 mmHg 93%
18:00 +8°C° 0 mm 2 mps 748 mmHg 94%
19:00 +9°C° 0 mm 1 mps 748 mmHg 95%
20:00 +9°C° 0 mm 1 mps 748 mmHg 96%
21:00 +10°C° 0 mm 1 mps 748 mmHg 96%
22:00 +10°C° 0 mm 1 mps 748 mmHg 96%
23:00 +10°C° 0 mm 1 mps 749 mmHg 97%

9 May, Sunday

Time Temperature Precipitation Wind Pressure Humidity
00:00 +10°C° 0 mm 1 mps 749 mmHg 97%
01:00 +10°C° 0 mm 1 mps 749 mmHg 97%
02:00 +11°C° 0 mm 1 mps 749 mmHg 97%
03:00 +10°C° 0 mm 1 mps 749 mmHg 97%
04:00 +9°C° 0 mm 1 mps 749 mmHg 97%
05:00 +8°C° 0 mm 0 mps 750 mmHg 97%
06:00 +10°C° 0 mm 1 mps 750 mmHg 93%
07:00 +12°C° 0 mm 1 mps 750 mmHg 88%
08:00 +14°C° 0 mm 1 mps 750 mmHg 84%
09:00 +16°C° 0 mm 1 mps 750 mmHg 76%
10:00 +17°C° 0 mm 2 mps 750 mmHg 68%
11:00 +19°C° 0 mm 2 mps 750 mmHg 60%
12:00 +20°C° 0 mm 2 mps 749 mmHg 56%
13:00 +22°C° 0 mm 3 mps 749 mmHg 53%
14:00 +24°C° 0 mm 3 mps 748 mmHg 49%

10 May, Monday

Time Temperature Precipitation Wind Pressure Humidity

11 May, Tuesday

Time Temperature Precipitation Wind Pressure Humidity
Show more

We Need Your Consent

Meteoprog and our Service Providers may store and access personal data such as cookies, device identifiers or other similar technologies on your device and process such data to personalise content and ads, as well as provide social media features and to analyse the traffic.

  • Store and/or access information on your device

    Cookies, device identifiers or other information can be stored or accessed on your device for the purposes indicated above.

  • Personalised ads and content, ad and content measurement, audience insights, and products development

    Ads and content can be personalised based on a profile. More data can be added to better personalise ads and content. Ad and content performance can be measured. Insights about the audience who saw the ads and content can be derived. Such data can be used to develop or improve user’s experience, systems and software.

By clicking ‘I Agree’ you will allow the use of indicated cookies, device identifiers, web beacons or other similar technologies. Your settings can be changed in the browser on your device.

For certain purposes, legitimate interests may be relied on, rather than consent. You can read more about this in our Privacy and Cookie Policy.